Weather History for Cecil Field, FL

Change the Weather History Date:

Saturday, April 5, 2014

  Actual Average (KJAX) Record (KJAX)
Temperature  
Mean Temperature 71 °F 65 °F  
Max Temperature 82 °F 77 °F 89 °F (1880)
Min Temperature 60 °F 53 °F 35 °F (1975)
Degree Days  
Heating Degree Days 0 3  
Month to date heating degree days 15  
Since 1 July heating degree days 1304  
Cooling Degree Days 6 3  
Month to date cooling degree days 13  
Year to date cooling degree days 96  
Growing Degree Days 21 (Base 50)    
Moisture  
Dew Point 64 °F    
Average Humidity 88    
Maximum Humidity 100    
Minimum Humidity 54    
Precipitation  
Precipitation 0.00 in 0.10 in 2.46 in (1933)
Month to date precipitation 0.52  
Year to date precipitation 10.96  
Snow  
Snow 0.00 in 0.00 in 0.00 in (2002)
Month to date snowfall 0.0  
Since 1 July snowfall T  
Snow Depth -    
Sea Level Pressure  
Sea Level Pressure 30.01 in    
Wind  
Wind Speed 3 mph (WSW)    
Max Wind Speed 8 mph    
Max Gust Speed -    
Visibility 8 miles    
Events Thunderstorm    
T = Trace of Precipitation, MM = Missing Value Source: NWS Daily Summary

Daily Weather History Graph

Daily Weather History Graph

Search for Another Location

Airport:

Trip Planner

Search our weather history database for the weather conditions in past years. The results will help you decide how hot, cold, wet, or windy it might be!

Date:

Astronomy

Apr. 05, 2014 Rise Set
Actual Time 7:11 AM EDT 7:48 PM EDT
Civil Twilight 6:47 AM EDT 8:13 PM EDT
Nautical Twilight 6:19 AM EDT 8:41 PM EDT
Astronomical Twilight 5:50 AM EDT 9:10 PM EDT
Moon 11:33 AM EDT (4/5) 12:43 AM EDT (4/5)
Length of Visible Light 13h 25m
Length of Day
12h 36m
Waxing Crescent, 34% of the Moon is Illuminated
Apr 5
Waxing Crescent
Apr 7
First Quarter
Apr 15
Full
Apr 22
Last Quarter
Apr 29
New

Hourly Weather History & Observations

Time (EDT) Temp. Heat Index Dew Point Humidity Pressure Visibility Wind Dir Wind Speed Gust Speed Precip Events Conditions
12:15 AM 64.4 °F - 59.0 °F 83% 29.97 in 10.0 mi Calm Calm - N/A   Clear
12:35 AM 64.4 °F - 59.0 °F 83% 29.96 in 10.0 mi SSE 6.9 mph - N/A   Clear
12:55 AM 64.4 °F - 59.0 °F 83% 29.97 in 10.0 mi SW 3.5 mph - N/A   Clear
1:15 AM 64.4 °F - 60.8 °F 88% 29.98 in 10.0 mi WSW 3.5 mph - N/A   Clear
1:35 AM 64.4 °F - 60.8 °F 88% 29.99 in 10.0 mi WSW 3.5 mph - N/A   Clear
1:55 AM 64.4 °F - 60.8 °F 88% 29.99 in 10.0 mi SW 4.6 mph - N/A   Clear
2:15 AM 62.6 °F - 60.8 °F 94% 29.99 in 10.0 mi SW 4.6 mph - N/A   Clear
2:35 AM 62.6 °F - 60.8 °F 94% 29.98 in 10.0 mi Calm Calm - N/A   Clear
2:55 AM 62.6 °F - 59.0 °F 88% 29.99 in 8.0 mi Calm Calm - N/A   Clear
3:15 AM 62.6 °F - 60.8 °F 94% 29.99 in 8.0 mi West 3.5 mph - N/A   Clear
3:35 AM 62.6 °F - 60.8 °F 94% 29.99 in 8.0 mi West 3.5 mph - N/A   Clear
3:55 AM 60.8 °F - 60.8 °F 100% 29.99 in 7.0 mi West 3.5 mph - N/A   Clear
4:15 AM 60.8 °F - 60.8 °F 100% 29.99 in 5.0 mi West 6.9 mph - N/A   Partly Cloudy
4:35 AM 62.6 °F - 62.6 °F 100% 30.00 in 1.5 mi West 8.1 mph - N/A   Overcast
4:55 AM 62.6 °F - 62.6 °F 100% 30.00 in 3.0 mi West 6.9 mph - N/A   Overcast
5:15 AM 62.6 °F - 62.6 °F 100% 30.00 in 5.0 mi WSW 4.6 mph - N/A   Overcast
5:35 AM 62.6 °F - 62.6 °F 100% 30.01 in 6.0 mi Calm Calm - N/A   Mostly Cloudy
5:55 AM 62.6 °F - 60.8 °F 94% 30.01 in 5.0 mi Calm Calm - N/A   Scattered Clouds
6:15 AM 62.6 °F - 60.8 °F 94% 30.02 in 5.0 mi Calm Calm - N/A   Mostly Cloudy
6:35 AM 62.6 °F - 62.6 °F 100% 30.02 in 5.0 mi Calm Calm - N/A   Overcast
6:50 AM 62.6 °F - 62.6 °F 100% 30.02 in 5.0 mi Calm Calm - N/A   Overcast
7:50 AM 62.6 °F - 62.6 °F 100% 30.02 in 2.0 mi South 4.6 mph - N/A   Clear
8:50 AM 66.2 °F - 64.4 °F 94% 30.04 in 7.0 mi Calm Calm - N/A   Overcast
9:50 AM 71.6 °F - 64.4 °F 78% 30.04 in 8.0 mi Calm Calm - N/A   Mostly Cloudy
10:50 AM 75.2 °F - 64.4 °F 69% 30.05 in 9.0 mi Calm Calm - N/A   Scattered Clouds
11:50 AM 75.2 °F - 64.4 °F 69% 30.05 in 10.0 mi SSW 5.8 mph - N/A   Mostly Cloudy
12:50 PM 82.4 °F 83.9 °F 64.4 °F 54% 30.03 in 10.0 mi West 4.6 mph - N/A   Mostly Cloudy
1:50 PM 82.4 °F 83.9 °F 64.4 °F 54% 30.01 in 10.0 mi WSW 8.1 mph - N/A   Mostly Cloudy
2:50 PM 82.4 °F 83.9 °F 64.4 °F 54% 29.99 in 10.0 mi SW 8.1 mph - N/A   Mostly Cloudy
3:50 PM 80.6 °F 82.3 °F 64.4 °F 58% 29.97 in 10.0 mi West 5.8 mph - N/A   Mostly Cloudy
4:50 PM 75.2 °F - 64.4 °F 69% 29.97 in 10.0 mi Calm Calm - N/A   Mostly Cloudy
5:50 PM 73.4 °F - 68.0 °F 83% 29.97 in 10.0 mi Calm Calm - N/A   Mostly Cloudy
7:50 PM 71.6 °F - 68.0 °F 88% 30.00 in 10.0 mi Calm Calm - N/A   Overcast
8:15 PM 71.6 °F - 68.0 °F 88% 30.00 in 9.0 mi Calm Calm - N/A Thunderstorm Scattered Clouds
8:35 PM 69.8 °F - 68.0 °F 94% 30.01 in 6.0 mi Calm Calm - N/A   Clear
8:55 PM 69.8 °F - 68.0 °F 94% 30.02 in 6.0 mi East 3.5 mph - N/A   Scattered Clouds
9:15 PM 69.8 °F - 68.0 °F 94% 30.02 in 7.0 mi East 3.5 mph - N/A   Mostly Cloudy
9:35 PM 69.8 °F - 68.0 °F 94% 30.04 in 8.0 mi Calm Calm - N/A   Mostly Cloudy
9:55 PM 69.8 °F - 68.0 °F 94% 30.04 in 9.0 mi Calm Calm - N/A   Mostly Cloudy
10:15 PM 69.8 °F - 68.0 °F 94% 30.05 in 8.0 mi Calm Calm - N/A   Mostly Cloudy
10:35 PM 69.8 °F - 68.0 °F 94% 30.05 in 10.0 mi SW 3.5 mph - N/A   Mostly Cloudy
10:55 PM 69.8 °F - 66.2 °F 88% 30.05 in 10.0 mi Calm Calm - N/A   Mostly Cloudy
11:15 PM 68.0 °F - 66.2 °F 94% 30.05 in 10.0 mi Calm Calm - N/A   Overcast
11:35 PM 68.0 °F - 66.2 °F 94% 30.05 in 10.0 mi Calm Calm - N/A   Mostly Cloudy
11:55 PM 68.0 °F - 64.4 °F 88% 30.05 in 10.0 mi SW 4.6 mph - N/A   Scattered Clouds